EHI
19 18 15 13 13 12 10 8 6 7 8 7 6 5 3 1 0 0 1 2 2 2 1 0 1 2 2 1 0 0 0 1 2 3 3 2 3 3 3 3 3 2 3
20 19 17 15 14 13 12 10 8 7 8 8 7 5 3 1 0 0 0 1 2 3 2 1 1 2 1 0 0 0 0 0 1 2 3 3 2 3 3 3 3 3 4
21 20 19 17 16 14 14 13 11 8 7 8 7 6 5 2 2 1 0 1 2 3 3 2 2 2 1 1 1 1 0 0 0 1 2 2 1 1 2 2 2 3 3
21 22 22 20 18 15 14 14 13 10 7 7 8 8 6 4 3 2 1 0 1 2 3 3 4 4 4 3 1 1 0 0 0 0 1 1 0 1 1 1 1 1 1
20 23 24 24 23 19 14 14 15 12 9 9 9 8 7 6 6 4 2 0 0 1 2 4 6 6 6 5 4 2 1 1 1 0 0 0 0 1 1 0 0 0 0
22 23 23 25 27 26 20 17 17 16 14 13 11 8 7 7 8 7 4 2 1 1 3 5 7 7 7 7 7 6 4 2 1 0 0 0 0 1 1 0 0 0 0
23 22 21 23 28 30 29 25 23 22 20 17 13 10 8 8 8 9 8 5 3 4 6 7 7 8 8 9 9 8 6 3 2 0 0 0 0 0 0 0 0 0 0
19 20 20 22 26 30 33 33 30 29 26 21 15 12 11 9 8 10 10 7 6 7 8 9 9 8 9 9 8 7 6 4 2 1 0 1 1 1 1 1 0 0 0
16 17 18 20 22 27 33 35 35 34 31 25 18 15 14 12 9 10 10 8 8 10 10 10 9 8 7 7 7 7 6 5 3 2 1 2 3 2 3 2 1 1 1
14 16 17 18 20 26 32 35 36 36 34 28 22 18 16 14 13 13 12 10 10 12 12 11 8 7 6 6 6 6 6 6 4 3 3 4 4 3 4 5 4 3 3
13 17 20 21 24 29 33 36 37 38 36 31 25 21 18 16 16 17 16 15 14 14 14 12 9 7 6 6 6 6 6 6 5 4 3 3 3 3 5 6 6 5 5
14 19 24 27 31 35 38 38 38 39 38 33 27 23 19 17 18 19 19 18 16 15 14 12 9 7 6 7 7 6 6 7 6 4 3 3 2 3 4 5 6 5 5
16 20 25 30 35 39 40 39 38 39 38 34 29 26 22 20 20 19 18 17 15 13 12 11 10 8 6 7 7 5 5 7 7 5 3 2 1 2 3 3 3 3 3
17 21 24 28 34 38 38 37 37 37 37 36 32 29 26 24 21 19 16 14 12 10 9 9 9 7 6 6 6 5 5 6 6 4 2 1 1 2 2 1 1 1 1
20 23 25 26 30 34 34 34 35 35 36 37 34 29 27 25 22 19 16 13 11 9 6 6 7 6 4 4 4 5 5 5 4 2 1 0 0 1 1 0 0 0 0
24 25 25 26 28 30 30 30 32 33 35 37 33 28 26 25 22 19 16 13 10 7 4 3 4 4 2 2 2 3 4 3 2 1 0 0 0 0 0 0 0 0 0
26 25 25 26 27 27 26 27 30 32 34 34 30 26 24 22 20 17 14 12 8 4 3 3 3 3 1 0 1 1 2 1 1 0 0 0 0 0 0 0 0 0 0
22 22 21 23 25 25 24 25 29 32 32 30 26 23 21 18 16 14 12 10 6 3 1 2 3 2 1 0 0 0 0 0 0 0 0 0 0 0 0 0 0 0 0
18 18 17 19 22 23 24 26 30 32 31 27 23 21 20 17 15 13 11 9 7 4 2 1 1 2 1 0 0 0 0 0 0 0 0 0 0 0 0 0 0 0 0
18 17 17 18 22 25 27 29 31 31 29 25 22 20 19 17 15 13 11 11 11 9 5 2 1 1 1 1 0 0 0 0 0 0 0 0 0 0 0 0 0 0 0
19 19 19 19 22 27 29 29 30 29 27 24 21 20 18 16 14 12 11 11 12 12 9 5 2 2 2 1 0 0 0 0 0 0 0 0 0 0 0 0 0 0 0
18 18 18 18 22 26 28 27 25 25 24 22 20 18 17 14 13 12 11 11 12 12 10 7 5 4 4 2 1 0 0 0 0 0 0 0 0 0 0 0 0 0 0
16 16 16 17 20 23 24 22 19 18 18 17 15 14 14 13 13 13 12 12 12 11 11 10 8 7 7 6 3 1 0 0 0 0 0 0 0 0 0 0 0 0 0
14 14 14 16 18 19 18 16 14 13 14 12 11 11 11 11 12 12 12 12 12 12 12 12 11 10 9 8 6 2 0 0 0 0 0 0 0 0 0 0 0 0 0
11 11 13 14 14 14 13 12 11 11 11 10 9 9 9 10 11 11 10 9 10 11 11 11 10 9 8 7 5 2 0 0 0 0 0 0 0 0 0 0 0 0 0
8 8 11 12 12 12 11 10 11 11 10 9 9 8 9 10 11 10 8 6 7 8 7 7 8 7 6 4 2 1 0 0 0 0 0 0 1 1 1 0 0 0 0
Wind_Speed
9 9 9 9 8 6 6 5 5 4 3 2 2 2 1 1 1 1 2 3 3 3 3 2 2 2 2 2 2 2 2 1 1 2 1 2 1 2 2 2 2 3 3
8 9 9 8 8 8 7 6 5 5 4 3 3 2 2 1 1 1 1 2 3 3 4 3 2 2 2 2 2 2 1 1 1 2 1 1 3 2 2 2 2 2 2
13 11 11 9 8 8 8 7 6 6 4 4 2 2 1 1 1 1 1 1 3 3 3 3 3 2 2 2 2 2 3 2 1 2 3 2 2 2 2 2 1 1 1
10 11 10 10 9 8 7 6 6 6 5 5 4 4 4 3 3 2 2 2 2 3 3 3 3 3 2 2 2 3 2 3 1 1 1 2 3 2 1 2 2 2 2
12 12 12 11 9 8 7 6 6 6 5 5 5 5 4 3 2 2 2 2 1 2 3 3 3 2 2 2 2 2 2 2 2 2 1 1 1 1 2 2 2 2 2
10 10 9 8 7 7 7 6 6 5 5 5 5 5 5 4 3 3 3 2 1 1 2 3 2 2 2 2 2 2 2 2 2 2 2 2 2 2 2 2 2 2 2
10 10 10 9 9 9 8 7 7 6 5 5 5 5 5 5 5 4 4 3 2 2 3 2 2 2 2 2 2 2 2 2 2 2 2 2 2 2 2 2 2 2 2
10 11 11 11 10 10 9 9 8 7 6 6 5 4 4 4 3 4 3 4 3 3 3 3 3 2 2 2 2 2 2 2 2 2 2 2 2 2 2 3 2 1 1
11 11 11 11 10 10 10 10 9 7 7 6 5 4 4 4 4 4 3 3 2 3 3 3 3 3 3 2 2 1 2 2 2 2 2 2 2 2 2 2 3 3 2
8 9 10 10 9 9 8 9 9 8 7 7 6 5 4 4 4 4 4 4 3 3 3 4 3 3 2 2 2 1 1 1 1 1 1 1 1 1 1 1 2 2 3
9 9 9 9 9 8 8 8 9 8 7 7 6 5 4 4 4 4 4 4 3 3 3 4 3 3 3 2 2 2 1 1 1 1 0 1 1 0 0 1 1 1 2
6 7 7 8 8 9 9 8 8 8 8 7 6 5 4 4 4 4 3 3 3 3 3 3 3 3 3 2 2 2 2 2 1 1 0 1 1 0 0 1 1 1 2
5 6 6 6 7 8 8 8 7 7 7 7 6 5 5 4 4 4 3 3 3 2 2 3 3 3 2 2 2 2 2 2 2 2 1 1 0 1 1 1 1 1 1
5 5 6 5 6 6 6 7 6 6 7 7 7 7 6 6 5 4 4 4 3 3 3 3 3 3 2 2 2 2 2 2 2 2 2 2 2 2 1 1 1 1 1
5 5 5 5 5 5 5 6 6 6 6 6 7 6 5 5 4 4 4 4 4 4 3 3 2 2 2 2 2 2 2 2 1 1 1 2 2 2 2 1 1 1 1
4 5 5 5 5 6 5 5 6 6 6 6 6 5 5 5 5 4 4 3 4 3 3 3 3 3 2 2 3 2 2 2 2 2 2 2 2 1 1 2 2 3 3
3 4 5 5 5 6 5 5 5 6 6 6 5 5 5 5 5 5 4 4 4 3 3 3 3 3 3 3 3 3 3 3 3 3 2 2 2 2 1 1 1 2 3
3 3 4 4 4 4 5 5 5 5 6 6 5 5 4 4 4 4 4 4 3 3 3 3 3 3 3 4 4 4 3 2 3 3 3 3 3 2 2 2 1 2 2
3 3 4 4 3 3 4 5 4 5 5 5 5 5 4 4 4 4 4 4 3 3 3 3 4 4 4 5 4 4 2 1 2 2 3 3 3 4 3 2 1 2 3
2 2 2 3 3 3 4 5 4 4 4 4 5 5 5 5 4 4 4 3 3 3 3 3 3 4 4 5 5 5 2 2 2 2 2 3 4 4 4 3 3 3 4
2 3 3 3 2 2 4 4 4 4 3 3 3 3 4 4 4 3 3 2 2 2 2 2 2 3 4 5 6 6 3 3 2 2 2 2 3 4 4 4 4 5 4
2 3 3 3 2 3 4 4 3 3 2 3 2 2 3 4 4 4 3 2 3 2 2 2 2 2 3 4 5 7 6 5 3 3 2 3 4 4 4 3 4 4 2
2 2 3 3 2 2 3 3 1 2 2 2 2 2 2 3 3 4 4 3 3 3 3 3 3 3 2 3 4 6 6 6 3 2 3 3 4 3 3 4 4 2 1
2 2 3 3 1 1 2 3 2 2 3 2 0 1 1 2 2 2 3 3 3 3 3 3 3 3 2 2 2 2 3 3 3 2 2 3 2 2 2 2 2 2 3
1 2 3 2 1 1 1 2 2 3 2 0 1 1 1 2 2 1 2 3 4 5 5 4 4 4 4 5 5 4 3 3 3 1 0 0 0 1 1 1 1 1 1
2 2 2 2 1 1 1 0 1 2 2 1 1 1 1 2 2 1 1 3 3 5 7 6 5 4 5 5 5 5 5 4 4 3 1 1 2 2 2 2 2 2 2
Wind_Direction
178 168 164 161 157 152 154 164 169 174 160 152 155 155 174 183 160 163 154 151 149 149 142 144 141 142 149 166 164 145 138 146 126 92 10 333 281 239 239 232 222 227 222
166 167 165 163 164 165 168 170 173 174 177 176 174 169 169 175 161 143 137 145 144 150 148 141 142 145 140 138 145 134 133 167 143 135 104 345 337 321 264 239 218 229 219
174 173 171 172 168 171 175 177 180 176 174 166 144 131 96 63 78 104 139 154 146 142 142 146 141 147 149 163 171 163 153 177 210 163 147 164 234 304 320 295 263 251 233
171 172 172 172 174 178 175 173 175 173 172 162 155 155 161 175 195 184 171 159 151 153 153 152 152 154 154 162 182 178 172 164 199 232 205 186 172 166 294 316 307 281 259
177 177 176 175 173 172 171 170 165 173 175 169 168 168 173 180 172 156 154 166 177 173 166 161 161 165 165 172 180 167 173 178 191 204 206 215 202 172 176 267 301 312 285
176 172 169 164 166 169 168 166 164 173 176 171 168 171 174 169 155 158 167 181 198 199 189 177 174 179 178 181 188 183 182 195 194 200 192 180 183 197 186 214 249 272 283
172 168 167 167 170 171 171 168 168 172 174 170 172 175 177 173 173 175 176 177 186 202 209 179 168 177 188 185 177 182 208 205 199 211 217 212 218 193 180 184 222 251 280
172 174 176 173 174 173 172 171 174 175 174 172 177 178 177 175 181 183 179 184 194 198 191 181 174 176 184 188 186 199 220 221 229 234 222 225 235 209 187 180 178 216 285
178 176 177 176 175 176 176 176 176 177 179 179 175 176 177 174 177 179 174 182 194 188 176 177 179 190 192 191 183 210 231 225 220 222 214 221 237 223 212 187 174 169 213
180 181 178 178 176 177 174 172 174 181 184 183 184 183 187 184 184 181 179 183 189 184 172 179 186 192 193 190 189 214 230 211 227 219 211 246 251 234 207 187 182 166 175
182 184 181 176 171 170 173 175 177 176 179 183 184 182 184 184 181 184 191 190 187 184 183 184 183 190 197 200 197 220 207 201 241 256 200 259 247 230 225 182 173 169 153
176 174 175 172 171 175 178 180 180 182 184 183 178 180 181 178 179 186 185 175 178 183 187 179 177 188 189 187 188 215 209 192 206 239 212 267 250 259 250 183 194 194 175
149 154 162 170 177 178 178 181 181 180 182 179 177 178 181 182 188 191 179 170 174 177 182 172 174 186 193 189 192 197 200 196 203 209 206 232 181 266 248 191 205 211 190
149 154 164 170 173 173 177 181 185 180 177 179 180 182 188 189 192 191 180 177 174 182 192 185 189 191 187 188 195 192 193 201 209 207 201 200 192 214 220 203 213 197 166
144 151 164 170 173 176 182 185 189 188 180 181 188 190 189 186 182 185 182 178 180 190 184 177 187 191 183 197 197 210 201 200 213 220 207 197 186 190 202 198 198 174 175
160 160 165 167 173 173 184 188 186 183 173 179 191 186 181 182 184 185 181 179 194 199 180 186 182 190 203 188 181 184 200 201 206 218 228 222 200 226 226 212 204 187 188
161 170 174 173 179 181 183 191 187 174 171 183 186 180 176 181 187 185 181 190 196 190 188 195 187 199 211 195 192 195 192 203 213 215 215 231 219 213 219 249 271 256 237
165 175 178 175 178 181 177 177 175 169 173 179 177 174 168 177 183 183 188 195 188 185 191 198 198 194 212 207 201 193 192 204 216 214 210 212 227 220 197 209 249 267 271
176 170 166 169 165 171 168 151 154 154 157 170 176 176 179 183 185 192 202 202 185 190 198 196 194 195 218 214 204 184 178 209 238 241 227 208 212 222 191 172 220 268 285
147 130 116 116 133 154 146 135 140 142 163 181 184 182 181 187 193 197 198 192 186 202 204 205 203 201 215 216 207 187 173 200 242 263 264 233 220 224 204 192 200 236 260
108 110 104 112 133 139 133 139 148 168 190 182 171 170 176 186 199 200 200 190 190 195 201 211 218 212 215 216 211 197 185 200 211 229 251 254 235 232 227 212 211 231 240
102 111 108 101 97 111 122 133 160 179 159 145 145 168 179 187 189 193 204 200 193 197 212 213 230 238 231 218 215 205 202 196 193 223 239 247 247 241 235 223 231 240 230
113 113 112 102 82 99 121 130 141 125 122 127 150 187 198 198 186 188 195 199 199 201 211 210 224 243 244 229 213 205 207 207 203 226 239 257 254 244 241 242 239 228 201
114 115 111 112 96 72 111 132 131 114 106 117 174 233 223 224 211 204 199 198 204 206 211 215 222 230 234 230 211 204 211 221 232 255 276 279 265 248 256 261 248 221 208
108 115 123 130 124 110 116 139 133 114 106 100 269 256 242 233 226 227 229 217 216 205 204 213 206 201 224 232 210 192 197 202 211 197 256 322 260 262 273 267 257 243 224
131 121 127 139 141 123 114 221 184 144 140 164 258 251 242 243 227 214 294 312 258 238 223 217 203 212 216 207 199 195 189 188 176 152 171 214 222 227 235 239 253 246 237